Regional Weather Roundup
Issued by NWS

Home | Current Version | Previous Version | Text Only | Print | Product List | Glossary Off
Versions: 1 2 3 4 5 6 7 8 9 10 11 12 13 14 15 16 17 18 19 20 21 22 23 24 25 26 27 28 29 30 31 32 33 34 35 36 37 38 39 40 41 42 43 44 45 46 47 48 49 50

221
ASUS45 KBOU 282307
RWRCO

WEATHER ROUNDUP FOR COLORADO
NATIONAL WEATHER SERVICE DENVER/BOULDER CO
500 PM MDT SUN AUG 28 2016

NOTE: "FAIR" INDICATES FEW OR NO CLOUDS BELOW 12000 FEET WITH NO
SIGNIFICANT WEATHER AND/OR OBSTRUCTIONS TO VISIBILITY.

COZ001>005-013-030-031-290000-
...NORTHWEST COLORADO...

CITY           SKY/WX    TMP DP  RH WIND       PRES   REMARKS
CRAIG          FAIR      81  26  13 S7        30.21F
HAYDEN         FAIR      79  28  15 NW6G17    30.24S
MEEKER         FAIR      73  42  32 S10       30.25S
MOUNT WERNER   NOT AVBL
STEAMBOAT SPGS CLOUDY    72  34  24 CALM      30.28F
WALDEN         PTSUNNY   63  32  31 S10       30.39S
$$

COZ006>008-011-290000-
...WEST CENTRAL VALLEYS...

CITY           SKY/WX    TMP DP  RH WIND       PRES   REMARKS
GRAND JUNCTION FAIR      81  46  29 W8        30.17F
MONTROSE       FAIR      77  44  30 NW15      30.22F
EAGLE          MOSUNNY   70  45  40 SW8       30.31R
RIFLE          PTSUNNY   72  46  39 S21       30.24R
DELTA          FAIR      81  37  20 E8        30.19R
NUCLA          FAIR     N/A N/A N/A N5        30.28S
$$

COZ017>023-064>068-290000-
...SOUTHWEST COLORADO...

CITY           SKY/WX    TMP DP  RH WIND       PRES   REMARKS
DURANGO        FAIR      72  40  31 W7        30.25F
CORTEZ         FAIR      74  48  39 W13       30.23F
PAGOSA SPRINGS FAIR      71  31  22 SW5       30.31S
TELLURIDE      TSTM      53  47  78 W12       30.47R
WOLF CREEK PAS CLOUDY    46  34  61 NE6       30.61S THUNDER
$$

COZ009-010-012-014-032>034-037-058>063-290000-
...CENTRAL COLORADO...

CITY           SKY/WX    TMP DP  RH WIND       PRES   REMARKS
ASPEN          PTSUNNY   63  41  44 NW18G25   30.36R
BUENA VISTA    FAIR      70  34  26 NW10      30.32R
COPPER MTN     FAIR      46  36  66 NW10      30.65R
BERTHOUD PASS  LGT RAIN  34  21  60 E5        30.69F WCI  30
COTTONWOOD PAS FAIR      63  30  29 W6        30.45S
GUNNISON       FAIR      70  39  32 W3        30.32S
KREMMLING      CLOUDY    66  34  30 SE18      30.40R
LEADVILLE      RAIN      48  39  71 N16G26    30.49R
MONARCH PASS   CLOUDY    43  32  65 N15G21    30.69S
SALIDA         FAIR      75  36  24 NW6       30.33F
SUNLIGHT       MIX PCPN  43  37  81 SW3       30.62R VSB 1
WILKERSON PASS FAIR      52  36  54 E6        30.59S
$$

COZ069>075-290000-
...SAN LUIS VALLEY/SANGRE DE CRISTO MOUNTAINS...

CITY           SKY/WX    TMP DP  RH WIND       PRES   REMARKS
ALAMOSA        FAIR      74  36  25 VRB6      30.26F
LA VETA PASS   CLOUDY    59  41  51 E10G17    30.48S
SAGUACHE       FAIR      70  32  24 CALM      30.31S
$$

COZ035-036-038>040-290000-
...NORTHERN COLORADO FRONT RANGE...

CITY           SKY/WX    TMP DP  RH WIND       PRES   REMARKS
DENVER INTL AP PTSUNNY   84  35  17 CALM      30.14S THUNDER
DMNS CITY PARK   N/A     76  41  28 W8G20     30.17R
AURORA         PTSUNNY   81  42  24 SW16G22   30.17S
FRONT RANGE AP PTSUNNY   86  34  15 S9        30.16S
ERIE MUNI ARPT FAIR      83  37  18 W20G28    30.14R
BOULDER MUN AP FAIR      75  41  29 W15G29    30.17R
CENTENNIAL     PTSUNNY   79  40  24 SW10      30.19S
BROOMFIELD     PTSUNNY   77  37  24 W16G25    30.19R
FORT COLLINS   FAIR      82  39  21 W9        30.09R
LONGMONT       FAIR      82  40  22 W10       30.15S
$$

COZ041-046-047-076>085-087-088-290000-
...PIKES PEAK/PALMER DIVIDE AND SOUTHERN FOOTHILLS...

CITY           SKY/WX    TMP DP  RH WIND       PRES   REMARKS
COLO. SPRINGS  FAIR      81  38  21 N10       30.21F THUNDER
A. F. ACADEMY  FAIR      73  41  30 N13       30.23F
SCHRIEVER AFB  NOT AVBL
ELLICOTT       NOT AVBL
FALCON         FAIR      77  38  25 N10       30.27F
FORT CARSON    FAIR      81  43  26 N15       30.17F
LIMON          CLOUDY    77  46  33 SE12G18   30.17R
MONUMENT HILL  FAIR      72  39  30 N5        30.29F
TRINIDAD       FAIR      81  40  23 N3        30.15S
$$

COZ042>045-048>051-090-091-290000-
...NORTHEAST COLORADO...

CITY           SKY/WX    TMP DP  RH WIND       PRES   REMARKS
GREELEY ARPT   FAIR      88  37  16 W8        30.11R
AKRON          FAIR      86  46  24 SE18      30.12R
BURLINGTON     FAIR      84  52  33 SE15      30.10S
WRAY           NOT AVBL
STERLING       FAIR      86  48  26 SE13      30.06F
HOLYOKE        FAIR      86  52  30 SE12      30.09S
FORT MORGAN    FAIR      88  41  19 SE10      30.10R
$$

COZ086-089-092>099-290000-
...SOUTHEAST COLORADO...

CITY           SKY/WX    TMP DP  RH WIND       PRES   REMARKS
PUEBLO         FAIR      91  39  16 VRB3      30.05F
LA JUNTA       FAIR      89  49  25 NE9G16    30.03F
LAMAR          FAIR      88  59  37 SE16G23   30.01F
SPRINGFIELD      N/A     79  58  48 SE14      30.08R
$$




USA.gov is the U.S. government's official web portal to all federal, state and local government web resources and services.